Location: Ch�tillon
(48.8024°N, 2.2935°E)
Time: 17:48:10
(UTC+00:00)

METEOR 2-6 DEB - Visible Passes

Search period start: 11 August 2022 00:00
Search period end: 21 August 2022 00:00
Orbit: 797 x 832 km, 81.2° (Epoch: 10 August)

Date Brightness Start Highest point End Pass type
(mag) Time Alt. Az. Time Alt. Az. Time Alt. Az.
11 Aug ? 01:28:20 39° SSE 01:30:03 58° E 01:35:19 10° NNE visible
11 Aug ? 03:09:36 15° WSW 03:12:38 23° WNW 03:16:54 10° N visible
12 Aug ? 01:06:00 36° SE 01:07:23 43° E 01:12:27 10° NNE visible
12 Aug ? 02:47:16 21° WSW 02:49:42 30° WNW 02:54:24 10° N visible
13 Aug ? 00:43:39 30° ESE 00:44:45 33° E 00:49:30 10° NNE visible
13 Aug ? 02:24:55 29° WSW 02:26:50 38° WNW 02:31:50 10° N visible
14 Aug ? 00:21:17 24° ESE 00:22:08 25° E 00:26:27 10° NE visible
14 Aug ? 02:02:33 39° WSW 02:03:59 50° WNW 02:09:12 10° N visible
14 Aug ? 23:58:54 19° E 23:59:33 19° E 00:03:16 10° NE visible
15 Aug ? 01:40:10 54° SW 01:41:10 66° WNW 01:46:31 10° N visible
15 Aug ? 03:22:42 10° WNW 03:24:29 11° NW 03:26:15 10° NW visible
15 Aug ? 23:36:30 14° E 23:37:01 15° E 23:39:50 10° NE visible
16 Aug ? 01:17:45 70° SSW 01:18:23 85° W 01:23:46 10° N visible
16 Aug ? 02:59:01 11° W 03:01:26 15° WNW 03:04:26 10° NNW visible
16 Aug ? 23:14:05 11° E 23:14:30 11° E 23:15:38 10° ENE visible
17 Aug ? 00:55:20 71° SE 00:55:38 73° E 01:01:00 10° NNE visible
17 Aug ? 02:36:36 16° W 02:38:25 19° WNW 02:42:11 10° NNW visible
18 Aug ? 00:32:55 55° E 00:32:55 55° E 00:38:09 10° NNE visible
18 Aug ? 02:14:09 22° W 02:15:26 24° WNW 02:19:46 10° N visible
19 Aug ? 00:10:27 41° E 00:10:27 41° E 00:15:14 10° NNE visible
19 Aug ? 01:51:42 29° W 01:52:30 31° WNW 01:57:15 10° N visible
19 Aug ? 23:47:59 31° E 23:47:59 31° E 23:52:15 10° NNE visible
20 Aug ? 01:29:15 39° W 01:29:37 40° WNW 01:34:39 10° N visible
20 Aug ? 23:25:31 24° ENE 23:25:31 24° ENE 23:29:11 10° NE visible
